Location: Fontevrault
(47.1823°N, 0.0493°E)
Time: 01:15:37
(UTC+00:00)

Cosmos 2058 Rocket - Pass Details

Date: 30 October 2021
Orbit: 610 x 640 km, 82.5° (Epoch: 30 November)

Event Time Altitude Azimuth Distance (km) Brightness Sun altitude
Rises 20:29:56 0° 237° (WSW) 2,911 6.9 -38.0°
Reaches altitude 10° 20:33:11 10° 263° (W) 2,003 6.2 -38.5°
Enters shadow 20:33:28 11° 266° (W) 1,948 6.2 -38.6°
